Location: Newark
(49.8969°N, 3.3422°E)
Time: 05:50:01
(UTC+00:00)

A-11 Canister half - Pass Details

Date: 03 February 2020
Orbit: 1517 x 1683 km, 47.2° (Epoch: 27 February)

Event Time Altitude Azimuth Distance (km) Brightness Sun altitude
Rises 03:32:42 0° 288° (WNW) 4,688 - -36.2°
Reaches altitude 10° 03:36:09 10° 279° (W) 3,692 - -35.7°
Maximum altitude 03:43:58 32° 221° (SW) 2,370 - -34.4°
Exits shadow 03:48:27 22° 179° (S) 2,873 10.2 -33.8°
Drops below altitude 10° 03:51:47 10° 163° (SSE) 3,683 11.0 -33.2°
Sets 03:55:13 0° 154° (SSE) 4,676 11.7 -32.7°
